Location: Cahoon Acres
(40.8736°N, 111.8994°W)
Time: 04:52:44
(UTC+00:00)

Tiros 1 - All Passes

Search period start: 28 May 2020 00:00
Search period end: 07 June 2020 00:00
Orbit: 630 x 664 km, 48.4° (Epoch: 27 May)

Date Brightness Start Highest point End Pass type
(mag) Time Alt. Az. Time Alt. Az. Time Alt. Az.
28 May - 00:20:15 10° WNW 00:24:29 32° N 00:28:40 10° ENE daylight
28 May - 02:02:40 10° WNW 02:07:16 60° NNE 02:11:51 10° ESE daylight
28 May - 03:45:08 10° WNW 03:49:17 33° SW 03:53:25 10° SSE visible
28 May - 19:39:14 10° SSW 19:43:15 28° SE 19:47:14 10° E daylight
28 May - 21:20:27 10° WSW 21:25:11 70° NNW 21:29:52 10° ENE daylight
28 May - 23:03:37 10° WNW 23:07:54 33° N 23:12:09 10° ENE daylight
29 May - 00:46:30 10° NW 00:50:53 39° NNE 00:55:15 10° E daylight
29 May - 02:28:43 10° WNW 02:33:22 76° SSW 02:37:58 10° SE daylight
29 May - 04:12:20 10° W 04:14:56 15° SW 04:17:33 10° SSW visible
29 May - 18:26:19 10° SE 18:27:36 11° SE 18:28:52 10° ESE daylight
29 May - 20:04:24 10° SW 20:09:03 58° SE 20:13:41 10° ENE daylight
29 May - 21:46:52 10° W 21:51:24 44° NNW 21:55:53 10° NE daylight
29 May - 23:30:07 10° WNW 23:34:21 32° N 23:38:33 10° ENE daylight
30 May - 01:12:34 10° WNW 01:17:11 57° NNE 01:21:44 10° ESE daylight
30 May - 02:55:00 10° WNW 02:59:14 36° SW 03:03:27 10° SSE daylight
30 May - 18:49:17 10° SSW 18:53:11 26° SE 18:57:04 10° E daylight
30 May - 20:30:20 10° WSW 20:35:04 75° NNW 20:39:47 10° ENE daylight
30 May - 22:13:28 10° WNW 22:17:46 34° N 22:22:03 10° ENE daylight
30 May - 23:56:23 10° NW 00:00:46 38° NNE 00:05:07 10° E daylight
31 May - 01:38:37 10° WNW 01:43:18 81° SSW 01:47:54 10° SE daylight
31 May - 03:22:02 10° W 03:24:54 16° SW 03:27:47 10° S visible
31 May - 19:14:21 10° SW 19:18:58 54° SE 19:23:35 10° ENE daylight
31 May - 20:56:43 10° W 21:01:17 46° NNW 21:05:49 10° NE daylight
31 May - 22:39:58 10° WNW 22:44:13 32° N 22:48:25 10° ENE daylight
01 Jun - 00:22:28 10° WNW 00:27:05 54° NNE 00:31:38 10° E daylight
01 Jun - 02:04:51 10° WNW 02:09:11 39° SW 02:13:29 10° SSE daylight
01 Jun - 17:59:21 10° S 18:03:08 24° SE 18:06:54 10° E daylight
01 Jun - 19:40:12 10° WSW 19:44:58 79° NNW 19:49:43 10° ENE daylight
01 Jun - 21:23:18 10° WNW 21:27:38 35° N 21:31:57 10° ENE daylight
01 Jun - 23:06:16 10° WNW 23:10:39 37° NNE 23:14:59 10° E daylight
02 Jun - 00:48:31 10° WNW 00:53:13 86° SSW 00:57:50 10° ESE daylight
02 Jun - 02:31:45 10° W 02:34:52 18° SW 02:37:59 10° S daylight
02 Jun - 18:24:18 10° SW 18:28:54 50° SE 18:33:29 10° ENE daylight
02 Jun - 20:06:34 10° W 20:11:10 48° NNW 20:15:44 10° NE daylight
02 Jun - 21:49:49 10° WNW 21:54:05 32° N 21:58:18 10° ENE daylight
02 Jun - 23:32:22 10° NW 23:36:58 52° NNE 23:41:31 10° E daylight
03 Jun - 01:14:43 10° WNW 01:19:08 42° SW 01:23:29 10° SSE daylight
03 Jun - 17:09:26 10° S 17:13:04 22° SE 17:16:42 10° E daylight
03 Jun - 18:50:05 10° WSW 18:54:52 84° NNW 18:59:38 10° ENE daylight
03 Jun - 20:33:07 10° WNW 20:37:30 36° N 20:41:51 10° ENE daylight
03 Jun - 22:16:09 10° WNW 22:20:31 36° N 22:24:51 10° ENE daylight
03 Jun - 23:58:24 10° WNW 00:03:07 88° NNE 00:07:46 10° ESE daylight
04 Jun - 01:41:30 10° W 01:44:51 20° SW 01:48:09 10° S daylight
04 Jun - 17:34:15 10° SW 17:38:49 46° SE 17:43:22 10° ENE daylight
04 Jun - 19:16:24 10° W 19:21:03 50° NNW 19:25:40 10° NE daylight
04 Jun - 20:59:40 10° WNW 21:03:57 32° N 21:08:11 10° ENE daylight
04 Jun - 22:42:16 10° NW 22:46:51 50° NNE 22:51:23 10° E daylight
05 Jun - 00:24:35 10° WNW 00:29:04 46° SW 00:33:30 10° SE daylight
05 Jun - 16:19:32 10° S 16:23:01 20° SE 16:26:29 10° E daylight
05 Jun - 17:59:58 10° WSW 18:04:46 89° NNW 18:09:32 10° ENE daylight
05 Jun - 19:42:57 10° W 19:47:23 37° N 19:51:45 10° ENE daylight
05 Jun - 21:26:01 10° WNW 21:30:24 35° N 21:34:43 10° ENE daylight
05 Jun - 23:08:18 10° WNW 23:13:02 83° NNE 23:17:41 10° ESE daylight
06 Jun - 00:51:16 10° W 00:54:48 21° SW 00:58:18 10° S daylight
06 Jun - 16:44:13 10° SSW 16:48:44 43° SE 16:53:15 10° ENE daylight
06 Jun - 18:26:15 10° W 18:30:55 53° NNW 18:35:35 10° NE daylight
06 Jun - 20:09:31 10° WNW 20:13:49 32° N 20:18:04 10° ENE daylight
06 Jun - 21:52:09 10° NW 21:56:44 48° NNE 22:01:16 10° E daylight
06 Jun - 23:34:27 10° WNW 23:39:00 50° SW 23:43:29 10° SE daylight
